Cheyenne, WY

5:49 AM MDT on June 28, 2017 (GMT -0600)
Cheyenne

Weather History for KCYS - October, 2012

Change the Weather History Date:

Wednesday, October 17, 2012

  Actual Average Record
Temperature  
Mean Temperature 39 °F 46 °F  
Max Temperature 48 °F 58 °F 79 °F (1926)
Min Temperature 29 °F 34 °F 6 °F (1948)
Degree Days  
Heating Degree Days 26 19  
Month to date heating degree days 330 281  
Since 1 July heating degree days 500 562  
Cooling Degree Days 0 0  
Month to date cooling degree days 0 0  
Year to date cooling degree days 568 348  
Moisture  
Dew Point 17 °F    
Average Humidity 43    
Maximum Humidity 70    
Minimum Humidity 15    
Precipitation  
Precipitation 0.01 in 0.03 in 0.76 in (1910)
Month to date precipitation 0.48 0.57  
Year to date precipitation 8.91 14.50  
Snow  
Snow 0.10 in 0.20 in 5.20 in (2013)
Month to date snowfall 3.8 2.4  
Since 1 July snowfall 3.8 3.7  
Snow Depth 0.00 in    
Sea Level Pressure  
Sea Level Pressure 29.80 in    
Wind  
Wind Speed 21 mph (NW)    
Max Wind Speed 38 mph    
Max Gust Speed 51 mph    
Visibility 10 miles    
Events Rain , Snow    
T = Trace of Precipitation, MM = Missing Value Source: NWS Daily Summary

Daily Weather History Graph

Daily Weather History Graph

Search for Another Location

Airport or City:

Trip Planner

Search our weather history database for the weather conditions in past years. The results will help you decide how hot, cold, wet, or windy it might be!

Date:

Astronomy

Oct. 17, 2012 Rise Set
Actual Time 7:13 AM MDT 6:14 PM MDT
Civil Twilight 6:45 AM MDT 6:42 PM MDT
Nautical Twilight 6:13 AM MDT 7:14 PM MDT
Astronomical Twilight 5:41 AM MDT 7:46 PM MDT
Moon 9:52 AM MDT (10/17) 7:51 PM MDT (10/17)
Length of Visible Light 11h 56m
Length of Day
11h 00m
Waxing Crescent, 7% of the Moon is Illuminated
Oct 17
Waxing Crescent
Oct 21
First Quarter
Oct 29
Full
Nov 6
Last Quarter
Nov 13
New

Hourly Weather History & Observations

Time (MDT) Temp. Windchill Dew Point Humidity Pressure Visibility Wind Dir Wind Speed Gust Speed Precip Events Conditions
12:53 AM 46.0 °F 38.5 °F 24.1 °F 42% 29.55 in 10.0 mi WNW 19.6 mph 32.2 mph N/A   Clear
1:53 AM 45.0 °F 37.1 °F 23.0 °F 42% 29.56 in 10.0 mi WNW 19.6 mph 34.5 mph N/A   Clear
2:53 AM 44.1 °F 35.0 °F 21.9 °F 42% 29.55 in 10.0 mi WNW 24.2 mph 34.5 mph N/A   Clear
3:53 AM 39.9 °F 29.0 °F 26.1 °F 58% 29.60 in 10.0 mi WNW 26.5 mph 39.1 mph N/A   Mostly Cloudy
4:41 AM 35.6 °F 23.0 °F 30.2 °F 81% 29.80 in 6.0 mi WNW 27.6 mph 47.2 mph 0.00 in Snow Light Snow
4:53 AM 37.0 °F 25.4 °F 28.0 °F 70% 29.65 in 6.0 mi NW 25.3 mph 40.3 mph 0.00 in Snow Light Snow
5:05 AM 35.6 °F 23.4 °F 30.2 °F 81% 29.80 in 9.0 mi NNW 25.3 mph 32.2 mph 0.00 in Snow Light Snow
5:53 AM 35.1 °F 25.2 °F 28.9 °F 78% 29.72 in 10.0 mi NNW 16.1 mph 29.9 mph 0.00 in   Overcast
6:09 AM 33.8 °F 23.5 °F 30.2 °F 87% 29.85 in 2.5 mi NW 16.1 mph 36.8 mph 0.00 in Snow Light Snow
6:17 AM 33.8 °F 22.8 °F 30.2 °F 87% 29.84 in 9.0 mi NW 18.4 mph 25.3 mph 0.00 in   Overcast
6:53 AM 35.1 °F 23.5 °F 27.0 °F 72% 29.75 in 10.0 mi NW 21.9 mph 27.6 mph 0.00 in   Mostly Cloudy
7:53 AM 34.0 °F 23.4 °F 24.1 °F 67% 29.83 in 10.0 mi NW 17.3 mph 27.6 mph N/A   Partly Cloudy
8:53 AM 37.0 °F 27.0 °F 21.9 °F 54% 29.83 in 10.0 mi NW 18.4 mph 31.1 mph N/A   Clear
9:53 AM 39.9 °F 30.8 °F 17.1 °F 40% 29.82 in 10.0 mi NW 18.4 mph 31.1 mph N/A   Clear
10:53 AM 41.0 °F 30.7 °F 10.0 °F 28% 29.81 in 10.0 mi NNW 25.3 mph 35.7 mph 0.00 in   Clear
11:53 AM 42.1 °F 33.1 °F 10.0 °F 27% 29.81 in 10.0 mi NW 20.7 mph 40.3 mph 0.00 in   Partly Cloudy
12:53 PM 45.0 °F 35.6 °F 8.1 °F 22% 29.79 in 10.0 mi NW 27.6 mph 46.0 mph 0.00 in Rain Light Rain
1:53 PM 46.0 °F 36.4 °F 3.9 °F 18% 29.76 in 10.0 mi NW 32.2 mph 48.3 mph 0.00 in Rain Light Rain
2:53 PM 46.9 °F - 3.0 °F 16% 29.77 in 10.0 mi NW 31.1 mph 49.5 mph 0.00 in Rain Light Rain
3:53 PM 46.9 °F - 1.9 °F 16% 29.79 in 10.0 mi NW 29.9 mph 44.9 mph 0.00 in Rain Light Rain
4:53 PM 46.9 °F - 3.9 °F 17% 29.82 in 10.0 mi NW 32.2 mph 46.0 mph 0.00 in   Partly Cloudy
5:53 PM 46.0 °F 38.3 °F 3.0 °F 17% 29.83 in 10.0 mi NW 20.7 mph 38.0 mph N/A   Clear
6:53 PM 44.1 °F 36.5 °F 3.9 °F 19% 29.86 in 10.0 mi NW 17.3 mph 24.2 mph 0.00 in   Clear
7:53 PM 43.0 °F 34.0 °F 3.0 °F 19% 29.90 in 10.0 mi NW 21.9 mph 31.1 mph N/A   Clear
8:53 PM 35.1 °F 27.9 °F 12.0 °F 39% 29.97 in 10.0 mi NNE 9.2 mph - 0.00 in   Clear
9:53 PM 32.0 °F 24.8 °F 14.0 °F 48% 30.00 in 10.0 mi NNW 8.1 mph - N/A   Clear
10:53 PM 32.0 °F 22.1 °F 16.0 °F 52% 30.01 in 10.0 mi North 13.8 mph - N/A   Clear
11:53 PM 30.0 °F 20.0 °F 17.1 °F 59% 30.04 in 10.0 mi North 12.7 mph - N/A   Clear